Resia Pass, Italy

9:27 AM CET on January 17, 2018 (GMT +0100)
Resia Pass

Weather History for LIVE - October, 2013

Change the Weather History Date:

Saturday, October 12, 2013

  Actual Average Record
Temperature  
Mean Temperature 34 °F -  
Max Temperature 37 °F 53 °F 68 °F (2006)
Min Temperature 32 °F 38 °F 32 °F (2013)
Degree Days  
Heating Degree Days 30    
Moisture  
Dew Point 33 °F    
Average Humidity 93    
Maximum Humidity 100    
Minimum Humidity 81    
Precipitation  
Precipitation 0.00 in - - ()
Sea Level Pressure  
Sea Level Pressure 29.96 in    
Wind  
Wind Speed 6 mph ()    
Max Wind Speed 12 mph    
Max Gust Speed -    
Visibility 2.5 miles    
Events Snow    
Averages and records for this station are not official NWS values.
T = Trace of Precipitation, MM = Missing Value Source: Averaged Metar Reports

Daily Weather History Graph

Daily Weather History Graph

Search for Another Location

Airport or City:

Trip Planner

Search our weather history database for the weather conditions in past years. The results will help you decide how hot, cold, wet, or windy it might be!

Date:

Astronomy

Oct. 12, 2013 Rise Set
Actual Time 7:31 AM CEST 6:36 PM CEST
Civil Twilight 7:01 AM CEST 7:06 PM CEST
Nautical Twilight 6:26 AM CEST 7:41 PM CEST
Astronomical Twilight 5:50 AM CEST 8:17 PM CEST
Moon 2:55 PM CEST (10/12) No Moon Set
Length of Visible Light 12h 05m
Length of Day
11h 04m
First Quarter, 55% of the Moon is Illuminated
Oct 12
First Quarter
Oct 19
Full
Oct 27
Last Quarter
Nov 3
New
Nov 10
First Quarter

Hourly Weather History & Observations

Time (CEST) Temp. Windchill Dew Point Humidity Pressure Visibility Wind Dir Wind Speed Gust Speed Precip Events Conditions
12:55 AM 33.8 °F 28.6 °F 32.0 °F 93% 29.95 in 6.2 mi SSE 5.8 mph - N/A   Mostly Cloudy
1:55 AM 33.8 °F 28.6 °F 32.0 °F 93% 29.95 in 6.2 mi SSE 5.8 mph - N/A   Mostly Cloudy
2:55 AM 33.8 °F 29.6 °F 32.0 °F 93% 29.95 in 6.2 mi South 4.6 mph - N/A   Mostly Cloudy
3:55 AM 33.8 °F 29.6 °F 32.0 °F 93% 29.92 in 3.1 mi SSE 4.6 mph - N/A Snow Light Snow
4:55 AM 33.8 °F 29.6 °F 32.0 °F 93% 29.92 in 1.9 mi SSE 4.6 mph - N/A Snow Light Snow
5:55 AM 33.8 °F - 32.0 °F 93% 29.89 in 1.9 mi Calm Calm - N/A Snow Light Snow
6:55 AM 33.8 °F - 32.0 °F 93% 29.89 in 1.9 mi Calm Calm - N/A Snow Light Snow
7:55 AM 33.8 °F 29.6 °F 32.0 °F 93% 29.89 in 1.2 mi South 4.6 mph - N/A Snow Light Snow
8:55 AM 32.0 °F 26.4 °F 32.0 °F 100% 29.89 in 1.2 mi South 5.8 mph - N/A Snow Light Snow
9:55 AM 32.0 °F 25.6 °F 32.0 °F 100% 29.92 in 1.2 mi South 6.9 mph - N/A Snow Light Snow
10:55 AM 32.0 °F 24.2 °F 32.0 °F 100% 29.92 in 1.2 mi South 9.2 mph - N/A Snow Light Snow
11:55 AM 33.8 °F 26.4 °F 32.0 °F 93% 29.95 in 1.2 mi SSE 9.2 mph - N/A Snow Light Snow
12:55 PM 33.8 °F 25.8 °F 32.0 °F 93% 29.95 in 1.2 mi SE 10.4 mph - N/A Snow Light Snow
1:55 PM 33.8 °F 25.8 °F 32.0 °F 93% 29.98 in 1.2 mi SSE 10.4 mph - N/A Snow Light Snow
2:55 PM 33.8 °F 25.3 °F 33.8 °F 100% 29.98 in 4.3 mi SSE 11.5 mph - N/A   Mostly Cloudy
3:55 PM 35.6 °F 28.0 °F 33.8 °F 93% 29.98 in 4.3 mi SE 10.4 mph - N/A   Mostly Cloudy
4:55 PM 37.4 °F 31.4 °F 32.0 °F 81% 30.01 in 3.1 mi SE 8.1 mph - N/A   Mostly Cloudy
5:55 PM 35.6 °F 29.9 °F 32.0 °F 87% 30.01 in 3.1 mi SSE 6.9 mph - N/A   Overcast
6:55 PM 35.6 °F 28.6 °F 33.8 °F 93% 30.01 in 1.2 mi SSE 9.2 mph - N/A   Overcast
7:55 PM 35.6 °F 29.2 °F 32.0 °F 87% 30.01 in 1.2 mi SSE 8.1 mph - N/A   Overcast
8:55 PM 35.6 °F 29.9 °F 33.8 °F 93% 30.04 in 1.2 mi SE 6.9 mph - N/A   Overcast
9:55 PM 35.6 °F 31.7 °F 33.8 °F 93% 30.04 in 1.9 mi SSE 4.6 mph - N/A   Overcast
10:55 PM 35.6 °F 29.9 °F 33.8 °F 93% 30.04 in 1.9 mi SSE 6.9 mph - N/A   Overcast
11:55 PM 35.6 °F 27.5 °F 33.8 °F 93% 30.01 in 1.9 mi SSE 11.5 mph - N/A   Overcast